| time (UTC) | temp C | wind direction | speed KPH | gust KPH | rain 1hr cm | rain 24hr cm | rain mn cm | humidity % | barometer mb |
| 20260508043103 | 20 | 112 | 0.0 | 0.0 | 0.00 | 0.00 | 0.00 | 39 | 1008.9 |
| 20260508041615 | 20 | 112 | 0.0 | 0.0 | 0.00 | 0.00 | 0.00 | 37 | 1009.0 |
| 20260508040110 | 21 | 112 | 0.0 | 0.0 | 0.00 | 0.00 | 0.00 | 35 | 1008.9 |
| 20260508034553 | 22 | 112 | 0.0 | 0.0 | 0.00 | 0.00 | 0.00 | 32 | 1008.7 |
| 20260508033052 | 22 | 112 | 0.0 | 0.0 | 0.00 | 0.00 | 0.00 | 29 | 1008.7 |
| 20260508031554 | 22 | 112 | 0.0 | 3.2 | 0.00 | 0.00 | 0.00 | 27 | 1008.7 |
| 20260508030052 | 23 | 112 | 0.0 | 4.8 | 0.00 | 0.00 | 0.00 | 26 | 1008.7 |
| 20260508024603 | 23 | 113 | 0.0 | 3.2 | 0.00 | 0.00 | 0.00 | 25 | 1008.7 |
| 20260508023051 | 24 | 112 | 0.0 | 3.2 | 0.00 | 0.00 | 0.00 | 25 | 1008.6 |
| 20260508021548 | 25 | 112 | 1.6 | 6.4 | 0.00 | 0.00 | 0.00 | 24 | 1008.6 |
| 20260508020050 | 26 | 118 | 1.6 | 6.4 | 0.00 | 0.00 | 0.00 | 23 | 1008.7 |
| 20260508014546 | 26 | 118 | 0.0 | 6.4 | 0.00 | 0.00 | 0.00 | 23 | 1008.8 |
| 20260508013044 | 26 | 119 | 0.0 | 0.0 | 0.00 | 0.00 | 0.00 | 22 | 1008.7 |
| 20260508011551 | 27 | 119 | 0.0 | 0.0 | 0.00 | 0.00 | 0.00 | 22 | 1008.8 |
| 20260508010040 | 27 | 120 | 0.0 | 3.2 | 0.00 | 0.00 | 0.00 | 23 | 1008.9 |
| 20260508004542 | 27 | 118 | 0.0 | 6.4 | 0.00 | 0.00 | 0.00 | 22 | 1009.1 |
| 20260508003039 | 27 | 120 | 0.0 | 4.8 | 0.00 | 0.00 | 0.00 | 23 | 1009.1 |
| 20260508001541 | 27 | 123 | 1.6 | 3.2 | 0.00 | 0.00 | 0.00 | 24 | 1009.2 |
| 20260508000037 | 27 | 105 | 0.0 | 0.0 | 0.00 | 0.00 | 0.00 | 23 | 1009.1 |
| 20260507234536 | 27 | 122 | 1.6 | 12.9 | 0.00 | 0.00 | 0.00 | 22 | 1009.2 |
| 20260507233053 | 27 | 126 | 0.0 | 6.4 | 0.00 | 0.00 | 0.00 | 25 | 1009.3 |
| 20260507231537 | 27 | 181 | 1.6 | 8.0 | 0.00 | 0.00 | 0.00 | 23 | 1009.5 |
| 20260507230030 | 28 | 104 | 1.6 | 4.8 | 0.00 | 0.00 | 0.00 | 24 | 1009.7 |
| 20260507224528 | 27 | 118 | 1.6 | 9.7 | 0.00 | 0.00 | 0.00 | 26 | 1010.0 |
| 20260507223022 | 27 | 107 | 0.0 | 4.8 | 0.00 | 0.00 | 0.00 | 26 | 1010.3 |
| 20260507221524 | 26 | 91 | 1.6 | 6.4 | 0.00 | 0.00 | 0.00 | 27 | 1010.3 |
| 20260507220019 | 26 | 245 | 1.6 | 6.4 | 0.00 | 0.00 | 0.00 | 27 | 1010.6 |
| 20260507214517 | 26 | 106 | 0.0 | 6.4 | 0.00 | 0.00 | 0.00 | 26 | 1010.9 |
| 20260507213021 | 25 | 117 | 1.6 | 6.4 | 0.00 | 0.00 | 0.00 | 27 | 1011.0 |
| 20260507211516 | 26 | 131 | 0.0 | 3.2 | 0.00 | 0.00 | 0.00 | 27 | 1011.2 |
| 20260507210014 | 26 | 108 | 3.2 | 11.3 | 0.00 | 0.00 | 0.00 | 27 | 1011.3 |
| 20260507204514 | 25 | 108 | 1.6 | 14.5 | 0.00 | 0.00 | 0.00 | 28 | 1011.5 |
| 20260507203009 | 25 | 218 | 1.6 | 8.0 | 0.00 | 0.00 | 0.00 | 28 | 1011.6 |
| 20260507201513 | 25 | 96 | 0.0 | 17.7 | 0.00 | 0.00 | 0.00 | 30 | 1011.7 |
| 20260507200011 | 24 | 192 | 1.6 | 11.3 | 0.00 | 0.00 | 0.00 | 31 | 1011.8 |
| 20260507194505 | 25 | 114 | 1.6 | 14.5 | 0.00 | 0.00 | 0.00 | 31 | 1012.0 |
| 20260507193100 | 23 | 118 | 3.2 | 14.5 | 0.00 | 0.00 | 0.00 | 34 | 1012.1 |
| 20260507191558 | 23 | 177 | 0.0 | 9.7 | 0.00 | 0.00 | 0.00 | 35 | 1012.1 |
| 20260507190057 | 23 | 189 | 3.2 | 9.7 | 0.00 | 0.00 | 0.00 | 36 | 1012.2 |
| 20260507184552 | 22 | 146 | 0.0 | 6.4 | 0.00 | 0.00 | 0.00 | 38 | 1012.3 |
| 20260507183049 | 22 | 218 | 1.6 | 11.3 | 0.00 | 0.00 | 0.00 | 40 | 1012.4 |
| 20260507181553 | 22 | 112 | 3.2 | 12.9 | 0.00 | 0.00 | 0.00 | 40 | 1012.3 |
| 20260507180043 | 22 | 181 | 1.6 | 9.7 | 0.00 | 0.00 | 0.00 | 40 | 1012.4 |
| 20260507174549 | 21 | 268 | 0.0 | 0.0 | 0.00 | 0.00 | 0.00 | 39 | 1012.5 |
| 20260507173052 | 21 | 274 | 0.0 | 1.6 | 0.00 | 0.00 | 0.00 | 40 | 1012.6 |
| 20260507171541 | 21 | 301 | 0.0 | 0.0 | 0.00 | 0.00 | 0.00 | 39 | 1012.7 |
| 20260507170026 | 20 | 305 | 0.0 | 0.0 | 0.00 | 0.00 | 0.00 | 42 | 1012.8 |
| 20260507164529 | 20 | 305 | 0.0 | 0.0 | 0.00 | 0.00 | 0.00 | 44 | 1012.9 |
| 20260507163019 | 19 | 305 | 0.0 | 0.0 | 0.00 | 0.00 | 0.00 | 46 | 1012.8 |
| 20260507161516 | 18 | 305 | 0.0 | 0.0 | 0.00 | 0.00 | 0.00 | 47 | 1012.8 |
| 20260507160014 | 18 | 307 | 0.0 | 0.0 | 0.00 | 0.00 | 0.00 | 50 | 1012.9 |
| 20260507154506 | 18 | 306 | 0.0 | 0.0 | 0.00 | 0.00 | 0.00 | 52 | 1012.8 |
| 20260507153002 | 17 | 310 | 0.0 | 0.0 | 0.00 | 0.00 | 0.00 | 57 | 1012.7 |
| 20260507151601 | 16 | 308 | 0.0 | 0.0 | 0.00 | 0.00 | 0.00 | 60 | 1012.8 |
| 20260507150100 | 16 | 359 | 0.0 | 0.0 | 0.00 | 0.00 | 0.00 | 63 | 1012.6 |
| 20260507144554 | 16 | 309 | 0.0 | 0.0 | 0.00 | 0.00 | 0.00 | 64 | 1012.6 |
| 20260507143047 | 15 | 309 | 0.0 | 0.0 | 0.00 | 0.00 | 0.00 | 64 | 1012.5 |
| 20260507141551 | 15 | 308 | 0.0 | 0.0 | 0.00 | 0.00 | 0.00 | 67 | 1012.5 |
| 20260507140039 | 13 | 308 | 0.0 | 0.0 | 0.00 | 0.00 | 0.00 | 70 | 1012.3 |
| 20260507134532 | 13 | 308 | 0.0 | 0.0 | 0.00 | 0.00 | 0.00 | 73 | 1012.2 |
| 20260507133029 | 12 | 308 | 0.0 | 0.0 | 0.00 | 0.00 | 0.00 | 75 | 1012.2 |
| 20260507131530 | 12 | 308 | 0.0 | 0.0 | 0.00 | 0.00 | 0.00 | 76 | 1011.9 |
| 20260507130025 | 12 | 359 | 0.0 | 0.0 | 0.00 | 0.00 | 0.00 | 75 | 1011.8 |
| 20260507124520 | 12 | 309 | 0.0 | 0.0 | 0.00 | 0.00 | 0.00 | 74 | 1011.7 |
| 20260507123016 | 12 | 309 | 0.0 | 0.0 | 0.00 | 0.00 | 0.00 | 74 | 1011.7 |
| 20260507121516 | 12 | 309 | 0.0 | 0.0 | 0.00 | 0.00 | 0.00 | 74 | 1011.6 |
| 20260507120035 | 12 | 309 | 0.0 | 0.0 | 0.00 | 0.00 | 0.00 | 75 | 1011.5 |
| 20260507114510 | 12 | 309 | 0.0 | 0.0 | 0.00 | 0.00 | 0.00 | 74 | 1011.4 |
| 20260507113032 | 12 | 309 | 0.0 | 4.8 | 0.00 | 0.00 | 0.00 | 75 | 1011.4 |
| 20260507111509 | 12 | 310 | 0.0 | 3.2 | 0.00 | 0.00 | 0.00 | 74 | 1011.4 |
| 20260507110011 | 12 | 310 | 0.0 | 0.0 | 0.00 | 0.00 | 0.00 | 74 | 1011.5 |
| 20260507104506 | 12 | 310 | 0.0 | 4.8 | 0.00 | 0.00 | 0.00 | 74 | 1011.5 |
| 20260507103008 | 13 | 308 | 0.0 | 4.8 | 0.00 | 0.00 | 0.00 | 73 | 1011.5 |
| 20260507101507 | 13 | 301 | 0.0 | 0.0 | 0.00 | 0.00 | 0.00 | 71 | 1011.4 |
| 20260507100109 | 13 | 301 | 0.0 | 0.0 | 0.00 | 0.00 | 0.00 | 69 | 1011.2 |
| 20260507094559 | 14 | 301 | 0.0 | 1.6 | 0.00 | 0.00 | 0.00 | 68 | 1011.1 |
| 20260507093056 | 14 | 301 | 0.0 | 3.2 | 0.00 | 0.00 | 0.00 | 66 | 1011.1 |
| 20260507091555 | 14 | 301 | 0.0 | 1.6 | 0.00 | 0.00 | 0.00 | 66 | 1011.0 |
| 20260507090056 | 14 | 301 | 0.0 | 3.2 | 0.00 | 0.00 | 0.00 | 68 | 1011.0 |
| 20260507084558 | 14 | 301 | 0.0 | 1.6 | 0.00 | 0.00 | 0.00 | 65 | 1011.2 |
| 20260507083050 | 14 | 301 | 0.0 | 3.2 | 0.00 | 0.00 | 0.00 | 62 | 1010.9 |
| 20260507081549 | 15 | 301 | 0.0 | 1.6 | 0.00 | 0.00 | 0.00 | 60 | 1011.0 |
| 20260507080047 | 15 | 301 | 0.0 | 3.2 | 0.00 | 0.00 | 0.00 | 59 | 1011.0 |
| 20260507074548 | 15 | 302 | 0.0 | 0.0 | 0.00 | 0.00 | 0.00 | 60 | 1011.1 |
| 20260507073052 | 16 | 301 | 0.0 | 3.2 | 0.00 | 0.00 | 0.00 | 62 | 1010.9 |
| 20260507071538 | 16 | 301 | 0.0 | 4.8 | 0.00 | 0.00 | 0.00 | 61 | 1010.8 |
| 20260507070039 | 16 | 301 | 0.0 | 3.2 | 0.00 | 0.00 | 0.00 | 61 | 1010.3 |
| 20260507064542 | 17 | 301 | 0.0 | 4.8 | 0.00 | 0.00 | 0.00 | 59 | 1010.3 |
| 20260507063040 | 17 | 301 | 0.0 | 3.2 | 0.00 | 0.00 | 0.00 | 58 | 1010.1 |
| 20260507061537 | 17 | 303 | 0.0 | 0.0 | 0.00 | 0.00 | 0.00 | 57 | 1010.0 |
| 20260507060036 | 18 | 303 | 0.0 | 0.0 | 0.00 | 0.00 | 0.00 | 55 | 1009.9 |
| 20260507054531 | 18 | 303 | 0.0 | 0.0 | 0.00 | 0.00 | 0.00 | 50 | 1010.3 |
| 20260507053035 | 19 | 303 | 0.0 | 0.0 | 0.00 | 0.00 | 0.00 | 44 | 1010.0 |
| 20260507051530 | 20 | 303 | 0.0 | 0.0 | 0.00 | 0.00 | 0.00 | 42 | 1010.1 |
| 20260507050032 | 20 | 303 | 0.0 | 0.0 | 0.00 | 0.00 | 0.00 | 39 | 1010.0 |
| 20260507044527 | 20 | 303 | 0.0 | 0.0 | 0.00 | 0.00 | 0.00 | 41 | 1009.8 |